This demonstration page uses our WeatherBlox Daily Observations layout. Learn more.

Left ArrowRight Arrow

38.80484, -77.04692

Hourly Observations for December 31, 2020

Temp ( °F °C ) Dew Point ( °F °C ) Humidity (%) Winds ( mph kmh ) Pressure ( in mb ) Visibility ( mi km ) Precip ( " mm )
12:52 am 00:52 Cloudy 46 7.8 40 4.4 79 79 S 18 30 30.05 1018 10 16 0.00 0.00
1:52 am 01:52 Cloudy 47 8.3 41 5 80 80 SSW 16 26 30.06 1018 10 16 0.00 0.00
2:52 am 02:52 Cloudy 48 8.9 42 5.6 80 80 SSW 15 24 30.05 1018 10 16 0.00 0.00
3:52 am 03:52 Cloudy 48 8.9 43 6.1 83 83 SSW 10 17 30.03 1017 10 16 0.00 0.00
4:04 am 04:04 Cloudy 49 9.4 43 6.1 80 80 SSW 10 17 30.03 1017 10 16 0.00 0.00
4:13 am 04:13 Cloudy 49 9.4 43 6.1 80 80 SSW 9 15 30.03 1017 10 16 0.00 0.00
4:52 am 04:52 Cloudy 49 9.4 44 6.7 83 83 SSW 13 20 30.03 1017 10 16 0.00 0.00
5:52 am 05:52 Cloudy 49 9.4 43 6.1 80 80 SSW 8 13 30.04 1017 10 16 0.00 0.00
6:52 am 06:52 Cloudy 47 8.3 43 6.1 86 86 S 8 13 30.06 1018 10 16 0.00 0.00
7:52 am 07:52 Cloudy 48 8.9 44 6.7 86 86 SSW 6 9 30.08 1019 10 16 0.00 0.00
8:16 am 08:16 Cloudy 49 9.4 44 6.7 83 83 W 6 9 30.11 1020 10 16 0.00 0.00
8:52 am 08:52 Cloudy 49 9.4 43 6.1 80 80 W 6 9 30.12 1020 10 16 0.00 0.00
9:52 am 09:52 Cloudy 50 10 43 6.1 77 77 WNW 5 7 30.16 1021 10 16 0.00 0.00
10:52 am 10:52 Cloudy 54 12.2 42 5.6 64 64 N 10 17 30.17 1022 10 16 0.00 0.00
11:52 am 11:52 Cloudy 54 12.2 40 4.4 59 59 NNW 8 13 30.16 1021 10 16 0.00 0.00
12:52 pm 12:52 Cloudy 55 12.8 38 3.3 53 53 N 14 22 30.16 1021 10 16 0.00 0.00
1:52 pm 13:52 Cloudy 52 11.1 35 1.7 53 53 NW 12 19 30.18 1022 10 16 0.00 0.00
2:52 pm 14:52 Cloudy 50 10 35 1.7 57 57 NW 15 24 30.20 1023 10 16 0.00 0.00
3:52 pm 15:52 Cloudy with Light Rain 47 8.3 37 2.8 69 69 N 10 17 30.23 1024 10 16 0.00 0.00
4:52 pm 16:52 Cloudy 45 7.2 36 2.2 71 71 N 13 20 30.27 1025 10 16 0.00 0.00
5:52 pm 17:52 Cloudy 44 6.7 35 1.7 71 71 N 13 20 30.30 1026 10 16 0.00 0.00
6:52 pm 18:52 Cloudy 43 6.1 32 0 65 65 NNE 9 15 30.35 1028 10 16 0.00 0.00
7:52 pm 19:52 Cloudy 42 5.6 33 0.6 71 71 NNE 14 22 30.35 1028 10 16 0.00 0.00
8:52 pm 20:52 Cloudy 43 6.1 31 -0.6 63 63 NNE 15 24 30.38 1029 10 16 0.00 0.00
9:52 pm 21:52 Mostly Cloudy 41 5 29 -1.7 62 62 N 13 20 30.40 1029 10 16 0.00 0.00
10:52 pm 22:52 Cloudy 42 5.6 29 -1.7 60 60 NNE 12 19 30.42 1030 10 16 0.00 0.00
11:52 pm 23:52 Cloudy 41 5 28 -2.2 60 60 N 13 20 30.42 1030 10 16 0.00 0.00

Powered by AerisWeather